Content
SEND FEEDBACK

Daily
Averages
Monthly
Summary
Canada

MONTREAL, QUEBEC


Home > North America > Canada > Quebec
Elevation: 118 feet     Latitude: 45 28N     Longitude: 073 45W

WEATHER
 
SELECT A DAY
Number of Records: 201,385;   Date Range: 1/1/95 - 10/19/14
 
SHARE

PRINT THIS DATA

[ ← Previous Day ]
WEATHER ALMANAC - DECEMBER 7, 2013
[ Next Day → ]
[ °C ]   °F
Weather ElementAverageHighLow
Temperature24.9 °F29 °F (1:00 am)21.2 °F (9:00 pm)
Dewpoint10.1 °F13 °F (1:00 am)6.8 °F (4:00 pm)
Humidity51.5 %63 % (7:00 am)34 % (1:00 pm)
Barometer30.31 in30.48 in (11:00 pm)30.17 in (1:00 am)
Wind Speed13.4 mph20.7 mph (4:00 pm)
Wind Gust28.8 mph (1:00 pm)
Weather ElementAverage
Visibility18.9 mi
Wind DirectionW (270.7 °)

Weather ElementTotal
Precipitation---
Heating Degree Days39.9 (Base 65)
Averaged from 27 records on December 7, 2013
WEATHER CONDITIONS BREAKOUT
WIND DIRECTION BREAKOUT
WEATHER BY HOUR - DECEMBER 7, 2013
[ °C ]   °F
Local TimeTemperatureDewpointHumidityBarometerVisibilityWind DirectionWind SpeedGust SpeedPrecipitationEventsConditions
1:00 AM29.0 °F13.0 °F36 %30.17 in15.0 miWNW (290°)9.2 mphOvercast
1:00 AM28.4 °F12.2 °F51 %30.17 in15.0 miWNW (290°)9.2 mphOvercast
2:00 AM28.4 °F10.4 °F47 %30.17 in15.0 miWNW (290°)15.0 mphOvercast
3:00 AM26.6 °F10.4 °F51 %30.19 in15.0 miWNW (300°)11.5 mphScattered Clouds
4:00 AM26.6 °F12.2 °F55 %30.22 in15.0 miWest (280°)6.9 mphOvercast
5:00 AM24.8 °F12.2 °F59 %30.23 in15.0 miWest (270°)9.2 mphPartly Cloudy
6:00 AM24.8 °F12.2 °F59 %30.25 in15.0 miWest (270°)11.5 mph18.4 mphPartly Cloudy
7:00 AM24.0 °F13.0 °F49 %30.26 in15.0 miWest (260°)12.7 mphScattered Clouds
7:00 AM23.0 °F12.2 °F63 %30.26 in15.0 miWest (260°)12.7 mphPartly Cloudy
8:00 AM23.0 °F12.2 °F63 %30.28 in15.0 miWest (260°)13.8 mphPartly Cloudy
9:00 AM24.8 °F12.2 °F59 %30.30 in30.0 miWest (260°)15.0 mphPartly Cloudy
10:00 AM24.8 °F12.2 °F59 %30.31 in30.0 miWest (270°)18.4 mph24.2 mphPartly Cloudy
11:00 AM24.8 °F10.4 °F54 %30.31 in30.0 miWest (270°)17.3 mph25.3 mphPartly Cloudy
12:00 PM24.8 °F10.4 °F54 %30.31 in30.0 miWest (270°)18.4 mphPartly Cloudy
1:00 PM26.0 °F9.0 °F34 %30.31 in15.0 miWest (270°)19.6 mphScattered Clouds
1:00 PM26.6 °F8.6 °F47 %30.31 in15.0 miWest (270°)19.6 mph28.8 mphPartly Cloudy
2:00 PM26.6 °F8.6 °F47 %30.31 in30.0 miWSW (250°)18.4 mph26.5 mphPartly Cloudy
3:00 PM26.6 °F8.6 °F47 %30.33 in30.0 miWSW (250°)16.1 mph24.2 mphPartly Cloudy
4:00 PM26.6 °F6.8 °F43 %30.35 in30.0 miWest (270°)20.7 mph28.8 mphPartly Cloudy
5:00 PM24.8 °F8.6 °F50 %30.37 in15.0 miWest (270°)16.1 mph23.0 mphPartly Cloudy
6:00 PM24.8 °F6.8 °F46 %30.38 in15.0 miWest (270°)12.7 mphClear
7:00 PM24.0 °F8.0 °F36 %30.41 in15.0 miWest (270°)11.5 mph
7:00 PM23.0 °F8.6 °F54 %30.40 in15.0 miWest (270°)11.5 mphClear
8:00 PM23.0 °F8.6 °F54 %30.42 in15.0 miWest (270°)10.4 mphClear
9:00 PM21.2 °F8.6 °F58 %30.43 in15.0 miWest (270°)8.1 mphClear
10:00 PM21.2 °F8.6 °F58 %30.45 in15.0 miWest (270°)8.1 mphPartly Cloudy
11:00 PM21.2 °F8.6 °F58 %30.48 in15.0 miWest (270°)9.2 mphClear
Hourly data recorded from CYUL, located miles away from Montreal, Quebec







STORIES FROM OUR PARTNERS